SL-8 DEB, 1591

Orbit data source: Space-Track

SL-8 DEB, 1591 is space debris in LEO originally from a launch on Sat, 18 Sep 1965 UTC launched from the Tyuratam Missile And Space Complex (TTMTR). Debris objects in space refer to the collection of defunct objects orbiting the Earth. Examples of debris include non-operational satellites, rocket bodies, and fragments generated from explosions, collisions, or faulty payload assembly.

Loading next visibility...
Identifier
1591, 1965-073H
Orbit
LEO
Country
Flag of CISCIS
Related business
Manufacturer
Unknown
Mission
Spacecraft
Bus & Motor
Unknown
Mass
Unknown
Launch date (UTC)
1965-09-18 (60 years ago)
Launch vehicle
Unknown
Launch site
Tyuratam Missile And Space Complex (TTMTR)
Object type
Payload
Rocket body
Debris
Shape & HBR
Unknown shape, 0.1 m
Radar Cross Section
Small (<0.1 m²)

Expand to show TLE details & history
Last TLE update: 1 day ago

TLE from 1 day ago
0 SL-8 DEB
1 01591U 65073H   25346.21842785 -.00000125  00000-0 -21248-3 0  9994
2 01591  56.0564 287.0630 0158566  80.4711  63.2438 12.42991123725477
Epoch: 2025-12-12T05:14Z
TLE epoch observation values (Epoch: 2025-12-12T05:14:32.166Z)
Latitude
28.21168°
Longitude
-73.79126°
Altitude
1,441.011 km
Speed
7.169 km/s
True Right ascension
05h 44m 01s
True Declination
28° 04' 52"
Sunlit
Object was in full shadow at epoch
Visualization orbit readout
Latitude
Unknown
Longitude
Unknown
Altitude
Unknown
Speed
Unknown
Apparent Right ascension
Unknown
Apparent Declination
Unknown
Sunlit
N/A
Visualization observer readout
Local Sidereal Time
05:21:43
Azimuth
Unknown
Elevation
Unknown
Doppler factor
Unknown
Orbital elements
Apogee altitude
1,618.595 km
Perigee altitude
1,368.951 km
Semi-major axis
7,871.91 km
Eccentricity
0.01586
Inclination
56.0564°
RAAN
287.063°
Arg. of periapsis
80.4711°
True anomaly
64.88066°
Mean anomaly
63.2438°
Eccentric anomaly
64.06079°
Mean motion
3.10758 °/min
Orbital period
115.85 mins
BSTAR
-0.00021248
Loading maneuver chart data...
Computing Atmospheric mass density...
Loading historical data...
Loading historical data...
Loading historical data...
Loading historical data...
Loading historical data...
Loading historical data...
Loading historical data...

Documentation

Showing up to 5 results
|